Probability
0 0 0 0 0 0 0 0 0 0 0 0 0 0 0 0 0 0 0 0 0 0 0 0 0 0 0 0 0 0 0 0 0 0 0 0 0 0 0 0 0 0 0 0 0 0 0 0 0
0 0 0 0 0 0 0 0 0 0 0 0 0 0 0 0 0 0 0 0 0 0 0 0 0 0 0 0 0 0 0 0 0 0 0 0 0 0 0 0 0 0 0 0 0 0 0 0 0
0 0 0 0 0 0 0 0 0 0 0 0 0 0 0 0 0 0 0 0 0 0 0 0 0 0 0 0 0 0 0 0 0 0 0 0 0 0 0 0 0 0 0 0 0 0 0 0 0
0 0 0 0 0 0 0 0 0 0 0 0 0 0 0 0 0 0 0 0 0 0 0 0 0 0 0 0 0 0 0 0 0 0 0 0 0 0 0 0 0 0 0 0 0 0 0 0 0
0 0 0 0 0 0 0 0 0 0 0 0 0 0 0 0 0 0 0 0 0 0 0 0 0 0 0 0 0 0 0 0 0 0 0 0 0 0 0 0 0 0 0 0 0 0 0 0 0
0 0 0 0 0 0 0 0 0 0 0 0 0 0 0 0 0 0 0 0 0 0 0 0 0 0 0 0 0 0 0 0 0 0 0 0 0 0 0 0 0 0 0 0 0 0 0 0 0
0 0 0 0 0 0 0 0 0 0 0 0 0 0 0 0 0 0 0 0 0 0 0 0 0 0 0 0 0 0 0 0 0 0 0 0 0 0 0 0 0 0 0 0 0 0 0 0 0
0 0 0 0 0 0 0 0 0 0 0 0 0 0 0 0 0 0 0 0 0 0 0 0 0 0 0 0 0 0 0 0 0 0 0 0 0 0 0 0 0 0 0 0 0 0 0 0 0
0 0 0 0 0 0 0 0 0 0 0 0 0 0 0 0 0 0 0 0 0 0 0 0 0 0 0 0 0 0 0 0 0 0 0 0 0 0 0 0 0 0 0 0 0 0 0 0 0
0 0 0 0 0 0 0 0 0 0 0 0 0 0 0 0 0 0 0 0 0 0 0 0 0 0 0 0 0 0 0 0 0 0 0 0 0 0 0 0 0 0 0 0 0 0 0 0 0
0 0 0 0 0 0 0 0 0 0 0 0 0 0 0 0 0 0 0 0 0 0 0 0 0 0 0 0 0 0 0 0 0 0 0 0 0 0 0 0 0 0 0 0 0 0 0 0 0
0 0 0 0 0 0 0 0 0 0 0 0 0 0 0 0 0 0 0 0 0 0 0 0 0 0 0 0 0 0 0 0 0 0 0 0 0 0 0 0 0 0 0 0 0 0 0 0 0
0 0 0 0 0 0 0 0 0 0 0 0 0 0 0 0 0 0 0 0 0 0 0 0 0 0 0 0 0 0 0 0 0 0 0 0 0 0 0 0 0 0 0 0 0 0 0 0 0
0 0 0 0 0 0 0 0 0 0 0 0 0 0 0 0 0 0 0 0 0 0 0 0 0 0 0 0 0 0 0 0 0 0 0 0 0 0 0 0 0 0 0 0 0 0 0 0 0
0 0 0 0 0 0 0 0 0 0 0 0 0 0 0 0 0 0 0 0 0 0 0 0 0 0 0 0 0 0 0 0 0 0 0 0 0 0 0 0 0 0 0 0 0 0 0 0 0
0 0 0 0 0 0 0 0 0 0 0 0 0 0 0 0 0 0 0 0 0 0 0 0 0 0 0 0 0 0 0 0 0 0 0 0 0 0 0 0 0 0 0 0 0 0 0 0 0
0 0 0 0 0 0 0 0 0 0 0 0 0 0 0 0 0 0 0 0 0 0 0 0 0 0 0 0 0 0 0 0 0 0 0 0 0 0 0 0 0 0 0 0 0 0 0 0 0
0 0 0 0 0 0 0 0 0 0 0 0 0 0 0 0 0 0 0 0 0 0 0 0 0 0 0 0 0 0 0 0 0 0 0 0 0 0 0 0 0 0 0 0 0 0 0 0 0
0 0 0 0 0 0 0 0 0 0 0 0 0 0 0 0 0 0 0 0 0 0 0 0 0 0 0 0 0 0 0 0 0 0 0 0 0 0 0 0 0 0 0 0 0 0 0 0 0
0 0 0 0 0 0 0 0 0 0 0 0 0 0 0 0 0 0 0 0 0 0 0 0 0 0 0 0 0 0 0 0 0 0 0 0 0 0 0 0 0 0 0 0 0 0 0 0 0
0 0 0 0 0 0 0 0 0 0 0 0 0 0 0 0 0 0 0 0 0 0 0 0 0 0 0 0 0 0 0 0 0 0 0 0 0 0 0 0 0 0 0 0 0 0 0 0 0
0 0 0 0 0 0 0 0 0 0 0 0 0 0 0 0 0 0 0 0 0 0 0 0 0 0 0 0 0 0 0 0 0 0 0 0 0 0 0 0 0 0 0 0 0 0 0 0 0
0 0 0 0 0 0 0 0 0 0 0 0 0 0 0 0 0 0 0 0 0 0 0 0 0 0 0 0 0 0 0 0 0 0 0 0 0 0 0 0 0 0 0 0 0 0 0 0 0
0 0 0 0 0 0 0 0 0 0 0 0 0 0 0 0 0 0 0 0 0 0 0 0 0 0 0 0 0 0 0 0 0 0 0 0 0 0 0 0 0 0 0 0 0 0 0 0 0
0 0 0 0 0 0 0 0 0 0 0 0 0 0 0 0 0 0 0 0 0 0 0 0 0 0 0 0 0 0 0 0 0 0 0 0 0 0 0 0 0 0 0 0 0 0 0 0 0
0 0 0 0 0 0 0 0 0 0 0 0 0 0 0 0 0 0 0 0 0 0 0 0 0 0 0 0 0 0 0 0 0 0 0 0 0 0 0 0 0 0 0 0 0 0 0 0 0
0 0 0 0 0 0 0 0 0 0 0 0 0 0 0 0 0 0 0 0 0 0 0 0 0 0 0 0 0 0 0 0 0 0 0 0 0 0 0 0 0 0 0 0 0 0 0 0 0
0 0 0 0 0 0 0 0 0 0 0 0 0 0 0 0 0 0 0 0 0 0 0 0 0 0 0 0 0 0 0 0 0 0 0 0 0 0 0 0 0 0 0 0 0 0 0 0 0
0 0 0 0 0 0 0 0 0 0 0 0 0 0 0 0 0 0 0 0 0 0 0 0 0 0 0 0 0 0 0 0 0 0 0 0 0 0 0 0 0 0 0 0 0 0 0 0 0
0 0 0 0 0 0 0 0 0 0 0 0 0 0 0 0 0 0 0 0 0 0 0 0 0 0 0 0 0 0 0 0 0 0 0 0 0 0 0 0 0 0 0 0 0 0 0 0 0
Wind_Speed
4 2 2 4 6 5 2 4 3 3 2 2 3 7 6 4 4 3 2 12 11 14 13 17 19 18 16 15 14 13 13 13 12 12 12 12 12 12 12 11 11 11 12 12 12 12 13 12 12
1 2 4 5 5 1 4 4 3 4 5 3 3 5 5 1 2 5 5 10 15 16 12 13 20 18 17 16 15 14 13 12 12 12 12 12 11 11 11 11 11 10 11 11 11 11 11 11 10
1 1 4 5 3 4 3 4 6 4 4 4 3 3 4 4 2 6 6 14 15 13 11 14 21 19 18 17 15 14 13 13 12 11 11 11 11 10 10 10 10 10 10 10 10 10 10 10 9
3 4 5 4 3 5 5 5 5 4 1 2 4 4 2 1 3 5 9 16 16 12 11 14 21 20 18 17 16 15 14 13 12 12 11 11 10 10 9 9 9 9 9 9 9 9 9 8 8
4 4 4 1 4 5 5 6 7 6 3 1 4 4 1 5 1 8 13 15 16 13 11 13 21 20 19 18 17 15 14 13 12 11 11 10 10 9 8 8 7 7 7 7 7 7 7 7 6
4 5 4 2 5 5 4 4 3 4 2 1 3 4 0 2 4 8 11 12 13 15 12 12 21 20 19 18 17 16 14 14 13 12 11 10 10 9 8 7 7 6 6 5 5 5 5 5 5
4 4 2 3 4 4 3 1 4 5 4 2 4 5 1 2 4 7 9 10 11 12 11 10 12 15 18 18 17 16 15 14 13 12 11 10 9 9 8 7 6 5 4 4 3 3 3 3 3
4 4 0 2 2 3 4 1 2 4 3 2 6 8 6 7 5 6 7 8 9 10 10 10 9 9 9 10 15 16 15 14 13 12 11 10 10 8 8 7 6 5 4 3 2 1 0 1 2
4 4 1 2 1 3 3 3 4 0 3 2 3 5 5 7 7 7 6 5 7 10 9 9 9 8 8 8 11 13 13 13 12 10 11 9 4 4 4 6 7 6 5 4 3 3 2 3 3
5 3 5 4 2 2 1 1 2 2 2 1 2 2 3 6 8 9 8 10 11 12 11 10 10 9 9 7 6 6 6 6 6 5 6 4 4 4 4 7 9 8 7 5 5 5 4 3 1
4 5 5 4 3 3 2 1 1 2 3 5 5 5 6 5 6 8 8 10 12 13 13 12 11 10 9 6 5 4 3 4 5 6 6 4 4 3 3 2 3 4 4 2 3 3 2 2 2
3 5 4 4 2 3 3 2 2 4 7 6 6 8 8 8 9 9 9 8 8 11 14 13 11 10 9 7 5 5 4 4 4 5 6 5 3 3 3 2 3 2 2 2 2 2 3 4 4
3 4 4 4 4 4 3 4 4 6 7 4 4 6 8 8 7 7 7 7 8 11 13 13 12 11 9 7 6 6 5 5 5 5 5 6 4 4 4 3 3 3 3 3 3 4 4 5 5
3 3 5 6 6 4 5 5 3 9 5 4 5 7 7 7 7 5 5 7 9 11 12 13 13 12 10 8 6 6 5 5 5 5 6 7 5 4 4 4 4 4 4 4 4 5 5 4 4
1 3 8 7 5 5 3 6 8 10 4 5 6 6 5 4 4 4 5 7 9 10 10 12 13 11 11 9 8 6 5 5 5 4 5 6 5 5 5 4 4 4 4 4 3 4 3 3 4
2 2 5 7 2 3 6 9 10 5 6 7 6 5 4 3 2 2 2 4 6 8 9 11 11 11 10 8 7 5 5 5 4 4 4 6 6 5 4 4 4 4 3 3 3 3 3 3 3
2 2 5 7 2 3 5 9 8 3 7 8 7 6 5 4 2 1 1 3 6 8 9 9 10 11 9 8 6 5 4 4 3 3 3 4 5 5 4 3 3 3 2 2 2 2 2 3 4
5 5 5 5 4 3 6 10 10 5 6 8 8 7 6 6 4 2 2 3 5 6 8 8 9 8 8 6 4 3 3 2 2 2 3 4 3 3 3 2 3 2 2 2 2 2 2 2 3
5 5 8 8 6 5 9 12 12 9 7 8 8 8 8 7 4 3 4 5 6 6 7 7 8 7 7 5 4 4 3 2 1 1 2 2 2 2 2 2 2 2 2 2 2 2 2 2 1
6 7 8 8 4 4 7 12 12 10 10 11 13 12 11 7 5 4 4 4 5 6 6 7 8 7 7 5 4 3 3 2 1 1 1 1 1 1 2 2 2 2 1 2 2 1 1 2 1
7 7 7 7 6 4 4 9 8 7 6 6 9 11 11 13 11 8 6 5 5 6 6 7 7 7 7 6 5 4 4 3 2 1 0 0 0 1 1 2 2 1 1 2 2 2 3 3 2
8 8 7 5 2 5 1 6 9 5 4 6 8 9 11 10 9 8 7 7 6 5 5 7 7 7 6 6 6 6 4 3 2 1 1 1 0 0 1 1 1 1 1 2 2 2 2 2 3
8 5 4 2 3 3 3 4 11 3 6 9 10 11 11 11 11 10 9 8 6 6 6 6 7 6 6 6 7 6 4 3 2 1 1 1 1 1 0 1 1 1 1 2 3 2 2 3 3
5 3 4 5 3 5 7 7 10 6 10 8 9 11 12 11 10 9 7 7 6 5 6 6 7 6 5 6 6 7 6 5 4 2 1 0 1 1 1 0 0 1 2 3 3 3 4 4 4
5 6 1 2 1 8 4 6 13 10 9 10 15 16 13 12 12 11 11 9 8 8 7 7 8 6 6 6 6 6 6 6 5 3 2 1 0 1 2 1 1 2 3 3 3 3 4 4 5
7 10 8 6 6 6 3 8 11 7 6 7 10 12 12 12 12 13 13 11 10 9 8 8 8 6 6 6 5 5 5 4 3 3 2 2 2 2 2 2 2 3 4 4 3 3 4 4 5
7 6 7 5 2 4 7 7 9 3 2 3 8 12 14 14 14 13 12 11 11 10 9 9 8 7 6 6 6 5 5 4 3 3 2 1 1 2 2 2 3 4 4 4 4 3 5 5 5
8 8 5 5 5 6 7 6 6 6 5 5 10 14 14 13 12 12 12 12 11 9 8 8 8 7 6 6 6 4 4 4 3 2 2 2 2 1 2 3 3 4 4 4 4 4 5 5 5
7 6 6 5 5 6 4 8 7 7 7 9 12 14 15 16 16 14 12 11 10 9 8 8 8 7 6 6 5 5 4 3 3 2 2 2 1 2 2 3 4 4 5 5 4 5 6 6 7
7 9 9 7 6 6 4 9 6 4 5 8 10 11 12 14 13 12 11 11 10 10 9 9 8 8 7 6 5 5 4 3 3 2 2 2 2 2 3 3 4 5 5 5 6 7 7 7 8
Wind_Direction
331 12 66 56 56 49 281 263 198 161 137 189 123 109 119 132 152 174 187 147 149 153 166 164 163 160 158 153 144 139 133 129 123 119 115 111 106 101 95 90 86 83 79 76 74 73 72 71 70
19 35 59 62 84 80 272 253 164 158 167 163 104 106 105 124 184 147 141 159 152 156 162 161 164 162 160 154 149 145 139 135 130 126 121 117 112 106 100 95 92 89 85 81 79 76 75 72 71
4 72 85 77 119 185 226 215 183 182 174 137 93 93 137 166 188 182 179 152 149 156 159 165 165 164 162 157 154 150 147 141 137 134 127 122 116 111 106 101 97 93 90 87 83 79 77 75 74
57 54 59 81 228 228 212 219 181 143 129 123 115 89 88 312 209 192 146 147 150 156 158 168 166 166 164 161 157 155 153 148 144 141 135 129 123 117 111 106 102 99 95 91 87 83 79 77 74
62 75 68 11 256 257 225 211 171 140 157 180 118 118 59 331 63 131 143 151 155 157 161 170 168 168 167 164 161 160 158 156 152 149 144 138 132 127 122 117 111 107 102 96 91 86 83 78 73
56 67 88 257 268 274 257 227 149 115 114 58 100 111 239 318 124 145 152 156 159 160 163 169 171 170 170 168 166 165 164 162 159 157 153 148 143 139 137 132 126 118 109 101 95 88 81 74 64
102 97 165 243 285 293 262 203 131 121 114 145 127 121 244 255 188 157 151 151 156 161 163 169 171 171 173 172 170 169 169 168 166 165 162 160 156 154 151 147 143 138 129 117 102 88 75 59 43
125 101 0 280 285 300 316 11 132 138 159 161 121 145 201 215 183 136 128 143 154 163 166 168 167 167 170 172 173 172 173 174 173 172 168 166 167 169 167 163 167 167 164 162 158 141 42 358 346
92 80 244 246 271 293 328 19 344 12 103 61 74 171 205 152 137 122 116 136 157 168 171 169 166 166 167 169 177 174 176 178 178 174 171 168 161 164 170 175 189 194 197 206 220 242 265 282 300
95 149 230 223 219 227 285 23 320 26 33 39 41 36 96 126 148 156 161 167 171 176 179 174 171 169 169 174 173 171 173 175 171 161 165 157 161 172 177 195 204 210 214 226 244 254 268 284 295
160 198 237 258 238 206 204 263 287 169 235 214 195 176 151 154 169 181 183 179 182 178 179 179 176 172 171 170 166 165 163 164 163 166 166 163 167 178 186 192 217 221 223 235 269 290 289 263 251
210 242 241 257 236 201 205 221 252 213 226 214 190 172 170 177 189 197 197 192 180 176 183 180 178 174 173 169 169 167 166 169 172 176 174 168 173 184 186 191 199 199 204 216 238 250 256 258 255
229 259 284 273 262 238 224 228 238 245 236 217 179 165 178 187 199 209 205 193 178 181 183 181 178 176 173 168 173 173 175 177 181 181 183 179 179 188 189 196 199 204 205 211 225 235 244 248 252
239 258 285 276 263 247 229 254 237 255 227 200 179 180 186 188 196 201 201 194 187 183 180 178 179 177 171 171 172 174 177 178 180 184 188 185 183 186 189 198 204 211 213 216 219 226 232 239 243
273 310 309 280 247 240 190 274 241 244 193 195 192 185 180 186 180 192 201 194 186 180 171 172 176 172 170 169 170 169 173 173 180 187 191 190 187 190 194 200 208 217 216 218 224 234 235 247 249
6 336 295 289 241 196 151 253 265 247 182 198 199 190 176 176 176 190 188 177 172 162 158 166 169 166 167 166 164 164 168 172 184 187 192 198 198 196 196 203 216 219 213 211 221 230 240 250 255
355 260 261 293 248 179 185 242 267 226 180 198 201 194 177 163 149 130 130 151 156 155 151 153 156 161 162 158 155 155 159 168 176 178 186 197 201 196 193 207 221 217 212 217 231 233 233 256 266
233 236 254 267 274 192 224 249 264 249 208 205 199 190 179 170 176 151 114 120 132 137 137 139 145 151 146 138 130 121 122 137 145 161 180 183 189 190 188 204 221 211 214 236 242 252 253 254 267
210 235 262 265 258 218 236 251 258 248 229 217 203 192 184 180 175 134 111 111 113 120 127 133 138 145 141 137 137 135 142 139 130 153 175 183 187 187 186 200 216 210 218 237 246 254 273 277 276
225 246 264 280 276 225 254 264 261 243 222 208 197 189 180 171 164 147 129 119 124 131 130 132 138 143 144 140 137 134 134 130 128 116 113 163 179 188 188 198 214 220 229 262 263 243 267 276 230
230 226 241 259 306 313 296 293 275 265 226 207 193 183 177 172 168 162 147 138 134 140 144 140 139 138 136 130 116 96 78 64 59 58 34 316 200 190 189 196 196 210 205 245 258 244 236 266 274
235 227 220 237 261 282 273 289 285 269 251 209 191 181 181 174 165 162 154 151 153 155 143 134 133 131 133 132 134 138 141 155 183 180 202 323 346 184 183 178 175 193 208 244 259 242 226 230 264
212 207 195 207 204 271 252 240 279 270 244 230 204 191 185 177 169 166 161 157 152 147 141 136 130 128 132 131 137 136 136 147 136 110 96 26 358 356 7 156 158 217 248 263 270 273 251 226 236
168 101 55 47 83 266 223 195 272 235 220 217 199 193 186 176 167 158 150 142 141 142 140 139 134 133 135 132 135 140 143 145 136 132 129 74 350 347 348 19 203 260 264 266 265 262 260 250 249
130 114 30 317 295 249 216 200 249 248 227 205 192 189 183 173 165 160 159 159 157 158 157 151 145 145 146 140 142 147 149 150 153 158 164 170 239 286 282 272 267 269 268 271 270 269 268 260 257
178 157 173 204 226 269 225 222 251 261 263 217 185 173 170 173 172 171 171 168 167 166 164 160 157 154 154 149 150 149 149 147 155 164 170 184 205 232 253 264 272 278 283 285 281 276 272 269 265
157 195 178 152 237 266 269 272 296 278 348 143 153 161 177 180 179 177 174 173 171 171 172 169 163 159 162 159 153 154 156 155 161 167 169 188 220 244 264 281 287 290 291 288 288 277 279 280 271
158 160 137 162 194 236 270 263 251 259 235 186 177 181 185 182 182 181 179 178 177 174 169 166 164 165 164 162 161 158 162 164 162 159 182 214 245 258 289 295 294 294 294 292 288 283 279 279 276
156 167 171 173 183 181 242 263 232 236 219 199 199 192 186 187 188 186 183 179 173 166 165 167 167 161 162 164 159 153 162 162 158 169 202 223 246 273 286 290 293 294 294 292 287 282 283 280 281
178 179 162 173 219 197 199 264 272 258 226 201 200 196 193 193 191 185 178 172 172 173 172 172 170 167 168 163 157 160 162 159 164 189 219 228 256 276 282 288 291 291 291 289 285 285 286 282 282